,,Stat5,,Stat1,,Stat2,,Stat3,,Stat4,,Wind1,,Wind1,
time,status,PA1M_AVG,status,PR1M_SUM,status,RH1M_AVG,status,SR1M_AVG,status,TA1M_AVG,status,W1dAve1m,status,W1sAve1m,
2002-08-20, 00:00:01,VALID,919.127,VALID,0,VALID,96.2859,VALID,-0.0849042,VALID,18.5158,VALID,11,VALID,0.357422,
2002-08-20, 00:01:00,VALID,919.098,VALID,0,VALID,96.0685,VALID,-0.101885,VALID,18.4602,VALID,11,VALID,0.308398,
2002-08-20, 00:03:00,INVALID,0,VALID,0,VALID,96.6216,VALID,-0.081508,VALID,18.4627,VALID,13,VALID,0.711182,
2002-08-20, 00:04:00,VALID,919.031,VALID,0,VALID,96.75,VALID,-0.0849042,VALID,18.4897,VALID,13,VALID,0.50957,
2002-08-20, 00:05:00,VALID,919.003,VALID,0,VALID,96.5428,VALID,-0.0339617,VALID,18.4701,VALID,18,VALID,0.595753,
2002-08-20, 00:37:00,INVALID,0,VALID,0,VALID,98.3332,VALID,-0.020377,VALID,18.1703,VALID,9,VALID,1.07599,
2002-08-20, 00:38:00,VALID,918.7,VALID,0,VALID,98.5468,VALID,-0.0679233,VALID,18.2994,VALID,16,VALID,1.02056,
2002-08-20, 00:39:00,VALID,918.711,VALID,0,VALID,98.6447,VALID,-0.0169808,VALID,18.3924,VALID,25,VALID,0.902902,
2002-08-20, 00:41:00,INVALID,0,VALID,0,VALID,98.5656,VALID,-0.101885,VALID,18.5403,VALID,29,VALID,0.603271,
2002-08-20, 00:42:00,VALID,918.714,VALID,0,VALID,98.5366,VALID,-0.0849042,VALID,18.5933,VALID,32,VALID,0.412109,
2002-08-20, 00:43:00,VALID,918.704,VALID,0,VALID,98.4781,VALID,-0.0679233,VALID,18.6455,VALID,32,VALID,0.111579,
2002-08-20, 01:15:00,INVALID,0,VALID,0,VALID,97.4883,VALID,-0.020377,VALID,19.1603,VALID,11,VALID,1.05469,
2002-08-20, 01:16:00,VALID,918.437,VALID,0,VALID,97.4774,VALID,-0.0339617,VALID,19.1735,VALID,7,VALID,1.05879,
2002-08-20, 01:17:00,VALID,918.419,VALID,0,VALID,97.3808,VALID,-0.0169808,VALID,19.1635,VALID,13,VALID,1.262,
2002-08-20, 01:19:00,INVALID,0,VALID,0,VALID,97.2594,VALID,0.020377,VALID,19.1387,VALID,13,VALID,1.45898,
2002-08-20, 01:20:00,VALID,918.352,VALID,0,VALID,97.3197,VALID,0.0339617,VALID,19.1397,VALID,14,VALID,1.11914,
2002-08-20, 01:21:00,VALID,918.364,VALID,0,VALID,97.3401,VALID,0.0169808,VALID,19.1529,VALID,19,VALID,0.58754,
2002-08-20, 01:53:00,INVALID,0,VALID,0,VALID,97.5524,VALID,-0.020377,VALID,19.1693,VALID,93,VALID,0.158854,
2002-08-20, 01:54:00,VALID,918.174,VALID,0,VALID,97.6694,VALID,-0.0169808,VALID,19.1951,VALID,92,VALID,0.133429,
2002-08-20, 01:55:00,VALID,918.132,VALID,0,VALID,97.7597,VALID,-0.0169808,VALID,19.2078,VALID,92,VALID,0.0290179,
2002-08-20, 01:57:00,INVALID,0,VALID,0,VALID,97.7844,VALID,-0.061131,VALID,19.2284,VALID,88,VALID,0.131836,
2002-08-20, 01:58:00,VALID,918.067,VALID,0,VALID,97.8856,VALID,-0.0339617,VALID,19.2406,VALID,39,VALID,0.417773,
2002-08-20, 01:59:00,VALID,918.034,VALID,0,VALID,97.9492,VALID,-0.0679233,VALID,19.2597,VALID,35,VALID,0.160256,
2002-08-20, 02:01:00,INVALID,0,VALID,0,VALID,97.9232,VALID,0,VALID,19.2666,VALID,35,VALID,0.508545,
2002-08-20, 02:02:00,VALID,917.945,VALID,0,VALID,97.8067,VALID,-0.0339617,VALID,19.2205,VALID,35,VALID,0.623828,
2002-08-20, 02:03:00,VALID,917.945,VALID,0,VALID,97.8741,VALID,-0.0339617,VALID,19.2138,VALID,35,VALID,0.046875,
2002-08-20, 02:35:00,INVALID,0,VALID,0,VALID,98.4514,VALID,-0.020377,VALID,19.1174,VALID,356,VALID,0.35322,
2002-08-20, 02:36:00,VALID,917.648,VALID,0,VALID,98.3764,VALID,-0.0679233,VALID,19.0818,VALID,351,VALID,0.557771,
2002-08-20, 02:37:00,VALID,917.675,VALID,0,VALID,98.3395,VALID,-0.0339617,VALID,19.0428,VALID,355,VALID,0.52381,
2002-08-20, 02:39:00,INVALID,0,VALID,0,VALID,98.529,VALID,0.020377,VALID,19.049,VALID,13,VALID,0.546631,
2002-08-20, 02:40:00,VALID,917.637,VALID,0,VALID,98.5532,VALID,0,VALID,19.0724,VALID,14,VALID,0.763086,
2002-08-20, 02:41:00,VALID,917.609,VALID,0,VALID,98.5684,VALID,0,VALID,19.0818,VALID,4,VALID,0.475761,
2002-08-20, 02:43:00,INVALID,0,VALID,0,VALID,98.5794,VALID,-0.020377,VALID,19.0761,VALID,15,VALID,0.418945,
2002-08-20, 02:44:00,VALID,917.554,VALID,0,VALID,98.5888,VALID,0,VALID,19.0677,VALID,1,VALID,0.363867,
2002-08-20, 02:45:00,VALID,917.542,VALID,0,VALID,98.6206,VALID,0,VALID,19.0811,VALID,359,VALID,0.257813,
2002-08-20, 03:17:00,INVALID,0,VALID,0,VALID,98.6218,VALID,-0.020377,VALID,19.0617,VALID,24,VALID,0.0572917,
2002-08-20, 03:18:00,VALID,917.177,VALID,0,VALID,98.6371,VALID,0,VALID,19.0781,VALID,24,VALID,0,
2002-08-20, 03:19:00,VALID,917.193,VALID,0,VALID,98.646,VALID,0,VALID,19.0848,VALID,3,VALID,0,
2002-08-20, 03:21:00,INVALID,0,VALID,0,VALID,98.6755,VALID,-0.061131,VALID,19.1074,VALID,13,VALID,0.675537,
2002-08-20, 03:22:00,VALID,917.136,VALID,0,VALID,98.6155,VALID,-0.0169808,VALID,19.1044,VALID,15,VALID,0.867383,
2002-08-20, 03:23:00,VALID,917.123,VALID,0,VALID,98.5824,VALID,0,VALID,19.0848,VALID,18,VALID,1.08494,
2002-08-20, 03:25:00,INVALID,0,VALID,0,VALID,98.5794,VALID,0,VALID,19.0484,VALID,26,VALID,1.06299,
2002-08-20, 03:26:00,VALID,917.08,VALID,0,VALID,98.5939,VALID,0,VALID,19.0488,VALID,23,VALID,0.885352,
2002-08-20, 03:27:00,VALID,917.079,VALID,0,VALID,98.6066,VALID,-0.0339617,VALID,19.0657,VALID,26,VALID,0.543069,
2002-08-20, 03:29:00,INVALID,0,VALID,0,VALID,98.5794,VALID,-0.020377,VALID,19.0495,VALID,12,VALID,1.28687,
2002-08-20, 03:30:00,VALID,917.031,VALID,0,VALID,98.5036,VALID,-0.0339617,VALID,19.0177,VALID,350,VALID,0.939844,
2002-08-20, 03:31:00,VALID,917.011,VALID,0,VALID,98.5087,VALID,-0.0339617,VALID,18.9884,VALID,19,VALID,1.01963,
2002-08-20, 04:03:00,INVALID,0,VALID,0,VALID,98.8812,VALID,0.040754,VALID,18.9097,VALID,9,VALID,0.916903,
2002-08-20, 04:04:00,VALID,917.195,VALID,0,VALID,98.852,VALID,0,VALID,18.8871,VALID,19,VALID,0.751028,
2002-08-20, 04:05:00,VALID,917.201,VALID,0,VALID,98.8596,VALID,0.0169808,VALID,18.8936,VALID,26,VALID,0.729539,
2002-08-20, 04:37:00,INVALID,0,VALID,0,VALID,98.899,VALID,0.061131,VALID,18.9385,VALID,21,VALID,0.215672,
2002-08-20, 04:38:00,VALID,917.322,VALID,0,VALID,98.8952,VALID,0,VALID,18.9418,VALID,21,VALID,0,
2002-08-20, 04:39:00,VALID,917.309,VALID,0,VALID,98.8774,VALID,0.0679233,VALID,18.9286,VALID,21,VALID,0.0372024,
2002-08-20, 05:11:00,INVALID,0,VALID,0,VALID,98.7032,VALID,0,VALID,18.9457,VALID,21,VALID,0.233428,
2002-08-20, 05:12:00,VALID,917.571,VALID,0,VALID,98.7121,VALID,0,VALID,18.9388,VALID,20,VALID,0.127878,
2002-08-20, 05:13:00,VALID,917.556,VALID,0,VALID,98.7007,VALID,0,VALID,18.9487,VALID,19,VALID,0.511347,
2002-08-20, 05:45:00,INVALID,0,VALID,0,VALID,98.6206,VALID,0,VALID,18.4816,VALID,13,VALID,0.863525,
2002-08-20, 05:46:00,VALID,917.456,VALID,0,VALID,98.6625,VALID,0,VALID,18.5072,VALID,12,VALID,0.780078,
2002-08-20, 05:47:00,VALID,917.473,VALID,0,VALID,98.6765,VALID,-0.0339617,VALID,18.5167,VALID,7,VALID,0.857088,
2002-08-20, 06:19:00,INVALID,0,VALID,0,VALID,98.8433,VALID,1.10036,VALID,18.3197,VALID,346,VALID,0.17041,
2002-08-20, 06:20:00,VALID,917.67,VALID,0,VALID,98.8291,VALID,1.18866,VALID,18.3197,VALID,331,VALID,0.212695,
2002-08-20, 06:21:00,VALID,917.667,VALID,0,VALID,98.8088,VALID,1.46035,VALID,18.2969,VALID,287,VALID,0.299733,
2002-08-20, 06:53:00,INVALID,0,VALID,0,VALID,99.1445,VALID,50.7591,VALID,18.3726,VALID,303,VALID,0.0691288,
2002-08-20, 06:54:00,VALID,918.011,VALID,0,VALID,99.1572,VALID,54.5594,VALID,18.3986,VALID,303,VALID,0.0219984,
2002-08-20, 06:55:00,VALID,917.999,VALID,0,VALID,99.1763,VALID,57.0386,VALID,18.4212,VALID,327,VALID,0.407924,
2002-08-20, 06:56:00,VALID,917.971,VALID,0,VALID,99.1991,VALID,63.4234,VALID,18.4404,VALID,332,VALID,0.367599,
2002-08-20, 06:57:00,VALID,917.952,VALID,0,VALID,99.1991,VALID,68.2799,VALID,18.4632,VALID,333,VALID,0.381811,
2002-08-20, 06:58:00,VALID,917.929,VALID,0,VALID,99.1966,VALID,71.9138,VALID,18.4856,VALID,355,VALID,0.374199,
2002-08-20, 06:59:00,VALID,917.897,VALID,0,VALID,99.2093,VALID,75.6326,VALID,18.5209,VALID,355,VALID,0.0378289,
2002-08-20, 07:00:01,VALID,917.896,VALID,0,VALID,99.208,VALID,80.1325,VALID,18.5372,VALID,326,VALID,0.255335,
2002-08-20, 07:01:00,VALID,917.901,VALID,0,VALID,99.1966,VALID,84.2759,VALID,18.5432,VALID,336,VALID,0.369992,
2002-08-20, 07:02:00,VALID,917.927,VALID,0,VALID,99.1966,VALID,88.8267,VALID,18.5884,VALID,7,VALID,0.493215,
2002-08-20, 07:03:00,VALID,917.949,VALID,0,VALID,99.1941,VALID,91.3908,VALID,18.6212,VALID,321,VALID,0.342882,
2002-08-20, 07:04:00,VALID,917.973,VALID,0,VALID,99.1966,VALID,86.9928,VALID,18.6533,VALID,312,VALID,0.102179,
2002-08-20, 07:05:00,VALID,917.982,VALID,0,VALID,99.1813,VALID,91.9512,VALID,18.6819,VALID,320,VALID,0.17433,
2002-08-20, 07:06:00,VALID,917.98,VALID,0,VALID,99.1572,VALID,100.034,VALID,18.6846,VALID,332,VALID,0.440739,
2002-08-20, 07:07:00,VALID,918.001,VALID,0,VALID,99.0847,VALID,91.8663,VALID,18.6747,VALID,295,VALID,0.578758,
2002-08-20, 07:08:00,VALID,918.004,VALID,0,VALID,98.983,VALID,112.057,VALID,18.6722,VALID,281,VALID,0.482525,
2002-08-20, 07:09:00,VALID,918.046,VALID,0,VALID,98.9779,VALID,127.017,VALID,18.6952,VALID,281,VALID,0.28125,
2002-08-20, 07:10:00,VALID,918.077,VALID,0,VALID,98.9881,VALID,132.128,VALID,18.7301,VALID,282,VALID,0.115234,
2002-08-20, 07:11:00,VALID,918.101,VALID,0,VALID,99.0109,VALID,142.35,VALID,18.7686,VALID,289,VALID,0.273438,
2002-08-20, 07:12:00,VALID,918.116,VALID,0,VALID,99.0478,VALID,141.281,VALID,18.8689,VALID,345,VALID,0.326389,
2002-08-20, 07:13:00,VALID,918.138,VALID,0,VALID,99.0898,VALID,148.328,VALID,18.9753,VALID,15,VALID,0.319257,
2002-08-20, 07:14:00,VALID,918.165,VALID,0,VALID,99.0987,VALID,149.431,VALID,19.0622,VALID,354,VALID,0.0715794,
2002-08-20, 07:15:00,VALID,918.188,VALID,0,VALID,98.9792,VALID,157.922,VALID,19.0396,VALID,320,VALID,0.231771,
2002-08-20, 07:16:00,VALID,918.187,VALID,0,VALID,98.8227,VALID,154.101,VALID,19.0821,VALID,3,VALID,0.362351,
2002-08-20, 07:17:00,VALID,918.172,VALID,0,VALID,98.6346,VALID,157.718,VALID,19.1335,VALID,12,VALID,1.14379,
2002-08-20, 07:18:00,VALID,918.204,VALID,0,VALID,98.3357,VALID,160.622,VALID,19.1497,VALID,14,VALID,1.34354,
2002-08-20, 07:19:00,VALID,918.216,VALID,0,VALID,98.0687,VALID,155.595,VALID,19.1591,VALID,360,VALID,0.960526,
2002-08-20, 07:20:00,VALID,918.253,VALID,0,VALID,98.0229,VALID,148.073,VALID,19.2234,VALID,359,VALID,0.45957,
2002-08-20, 07:21:00,VALID,918.248,VALID,0,VALID,97.7724,VALID,140.296,VALID,19.2654,VALID,355,VALID,0.775288,
2002-08-20, 07:22:00,VALID,918.24,VALID,0,VALID,97.2549,VALID,137.171,VALID,19.2632,VALID,358,VALID,0.886308,
2002-08-20, 07:23:00,VALID,918.221,VALID,0,VALID,97.0984,VALID,130.107,VALID,19.2947,VALID,7,VALID,0.797086,
2002-08-20, 07:24:00,VALID,918.211,VALID,0,VALID,97.0857,VALID,126.779,VALID,19.3464,VALID,9,VALID,0.634549,
2002-08-20, 07:25:00,VALID,918.218,VALID,0,VALID,97.0412,VALID,130.328,VALID,19.4011,VALID,24,VALID,0.801339,
2002-08-20, 07:26:00,VALID,918.274,VALID,0,VALID,96.6114,VALID,131.092,VALID,19.4145,VALID,338,VALID,0.861719,
2002-08-20, 07:27:00,VALID,918.318,VALID,0,VALID,96.2299,VALID,140.347,VALID,19.4302,VALID,4,VALID,0.839143,
2002-08-20, 07:28:00,VALID,918.364,VALID,0,VALID,96.1015,VALID,139.192,VALID,19.4587,VALID,17,VALID,0.874383,
2002-08-20, 07:29:00,VALID,918.394,VALID,0,VALID,96.1295,VALID,136.882,VALID,19.5529,VALID,11,VALID,0.979852,
2002-08-20, 07:30:00,VALID,918.399,VALID,0,VALID,96.0494,VALID,140.754,VALID,19.6239,VALID,16,VALID,1.00934,
2002-08-20, 07:31:00,VALID,918.396,VALID,0,VALID,95.5903,VALID,133.877,VALID,19.6627,VALID,3,VALID,1.12315,
2002-08-20, 07:32:00,VALID,918.391,VALID,0,VALID,95.2406,VALID,132.196,VALID,19.6786,VALID,7,VALID,1.07771,
2002-08-20, 07:33:00,VALID,918.375,VALID,0,VALID,95.1593,VALID,117.626,VALID,19.7042,VALID,15,VALID,1.26476,
2002-08-20, 07:34:00,VALID,918.368,VALID,0,VALID,94.8859,VALID,112.719,VALID,19.6789,VALID,14,VALID,1.07116,
2002-08-20, 07:35:00,VALID,918.373,VALID,0,VALID,94.9609,VALID,123.773,VALID,19.6813,VALID,7,VALID,0.787946,
2002-08-20, 07:36:00,VALID,918.378,VALID,0,VALID,95.0156,VALID,130.617,VALID,19.6818,VALID,358,VALID,1.06271,
2002-08-20, 07:37:00,VALID,918.367,VALID,0,VALID,94.6671,VALID,125.624,VALID,19.662,VALID,356,VALID,1.06229,
2002-08-20, 07:38:00,VALID,918.341,VALID,0,VALID,94.2946,VALID,125.845,VALID,19.6197,VALID,347,VALID,0.803043,
2002-08-20, 07:39:00,VALID,918.334,VALID,0,VALID,94.2361,VALID,136.475,VALID,19.6232,VALID,358,VALID,1.04519,
2002-08-20, 07:40:00,VALID,918.336,VALID,0,VALID,94.0199,VALID,149.092,VALID,19.61,VALID,356,VALID,1.1334,
2002-08-20, 07:41:00,VALID,918.327,VALID,0,VALID,94.3327,VALID,148.752,VALID,19.6587,VALID,5,VALID,0.802015,
2002-08-20, 07:42:00,VALID,918.356,VALID,0,VALID,94.128,VALID,152.743,VALID,19.6808,VALID,341,VALID,0.897135,
2002-08-20, 07:43:00,VALID,918.38,VALID,0,VALID,93.7567,VALID,153.982,VALID,19.6582,VALID,360,VALID,1.02766,
2002-08-20, 07:44:00,VALID,918.404,VALID,0,VALID,93.9334,VALID,154.05,VALID,19.6704,VALID,12,VALID,0.894848,
2002-08-20, 07:45:00,VALID,918.417,VALID,0,VALID,94.3543,VALID,141.23,VALID,19.7589,VALID,4,VALID,0.397569,
2002-08-20, 07:46:00,VALID,918.443,VALID,0,VALID,94.4815,VALID,130.498,VALID,19.8135,VALID,345,VALID,0.259487,
2002-08-20, 07:47:00,VALID,918.457,VALID,0,VALID,94.2132,VALID,128.817,VALID,19.8655,VALID,9,VALID,0.493877,
2002-08-20, 07:48:00,VALID,918.474,VALID,0,VALID,93.9042,VALID,132.518,VALID,19.8744,VALID,12,VALID,0.56435,
2002-08-20, 07:49:00,VALID,918.507,VALID,0,VALID,93.4006,VALID,135.032,VALID,19.9005,VALID,7,VALID,0.717311,
2002-08-20, 07:50:00,VALID,918.53,VALID,0,VALID,93.3701,VALID,137.273,VALID,19.9161,VALID,346,VALID,0.281445,
2002-08-20, 07:51:00,VALID,918.575,VALID,0,VALID,92.7343,VALID,139.803,VALID,19.9293,VALID,343,VALID,0.211965,
2002-08-20, 07:52:00,VALID,918.568,VALID,0,VALID,92.7241,VALID,138.156,VALID,19.9519,VALID,11,VALID,0.55366,
2002-08-20, 07:53:00,VALID,918.577,VALID,0,VALID,92.6707,VALID,139.158,VALID,19.9882,VALID,359,VALID,0.567568,
2002-08-20, 07:54:00,VALID,918.572,VALID,0,VALID,92.5982,VALID,142.571,VALID,20.0081,VALID,20,VALID,0.647569,
2002-08-20, 07:55:00,VALID,918.577,VALID,0,VALID,92.6351,VALID,146.222,VALID,20.0143,VALID,3,VALID,0.466295,
2002-08-20, 07:56:00,VALID,918.572,VALID,0,VALID,92.2371,VALID,145.322,VALID,19.9619,VALID,299,VALID,0.506641,
2002-08-20, 07:57:00,VALID,918.574,VALID,0,VALID,92.5194,VALID,145.033,VALID,19.9204,VALID,310,VALID,0.463742,
2002-08-20, 07:58:00,VALID,918.585,VALID,0,VALID,92.7445,VALID,144.388,VALID,19.9142,VALID,295,VALID,0.542969,
2002-08-20, 07:59:00,VALID,918.543,VALID,0,VALID,92.8627,VALID,145.458,VALID,19.8587,VALID,302,VALID,0.521176,
2002-08-20, 08:00:00,VALID,918.552,VALID,0,VALID,93.3879,VALID,148.616,VALID,19.8692,VALID,320,VALID,0.48952,
2002-08-20, 08:01:00,VALID,918.596,VALID,0,VALID,93.6282,VALID,151.911,VALID,19.8908,VALID,319,VALID,0.148438,
2002-08-20, 08:02:00,VALID,918.65,VALID,0,VALID,93.7249,VALID,155.85,VALID,19.9089,VALID,324,VALID,0.0888158,
2002-08-20, 08:03:00,VALID,918.671,VALID,0,VALID,94.0301,VALID,159.11,VALID,19.9636,VALID,2,VALID,0.199002,
2002-08-20, 08:04:00,VALID,918.66,VALID,0,VALID,94.0504,VALID,163.508,VALID,20.0346,VALID,2,VALID,0.00633446,
2002-08-20, 08:05:00,VALID,918.667,VALID,0,VALID,93.7821,VALID,169.095,VALID,20.061,VALID,2,VALID,0.0417411,
2002-08-20, 08:06:00,VALID,918.672,VALID,0,VALID,93.6308,VALID,174.852,VALID,20.0898,VALID,2,VALID,0.014597,
2002-08-20, 08:07:00,VALID,918.69,VALID,0,VALID,93.6448,VALID,180.031,VALID,20.1216,VALID,3,VALID,0.244932,
2002-08-20, 08:08:00,VALID,918.697,VALID,0,VALID,93.4871,VALID,188.385,VALID,20.1671,VALID,1,VALID,0.751234,
2002-08-20, 08:09:00,VALID,918.7,VALID,0,VALID,93.7465,VALID,197.504,VALID,20.222,VALID,20,VALID,0.844172,
2002-08-20, 08:10:00,VALID,918.743,VALID,0,VALID,94.0008,VALID,210.511,VALID,20.3055,VALID,13,VALID,0.418359,
2002-08-20, 08:11:00,VALID,918.78,VALID,0,VALID,93.3091,VALID,237.324,VALID,20.3447,VALID,328,VALID,0.199424,
2002-08-20, 08:12:00,VALID,918.798,VALID,0,VALID,93.056,VALID,241.688,VALID,20.3867,VALID,318,VALID,0.108941,
2002-08-20, 08:13:00,VALID,918.803,VALID,0,VALID,93.1743,VALID,267.771,VALID,20.4863,VALID,322,VALID,0.10114,
2002-08-20, 08:14:00,VALID,918.801,VALID,0,VALID,92.9034,VALID,262.88,VALID,20.5641,VALID,7,VALID,0.223818,
2002-08-20, 08:15:00,VALID,918.783,VALID,0,VALID,92.8271,VALID,263.644,VALID,20.6638,VALID,24,VALID,0.358941,
2002-08-20, 08:16:00,VALID,918.752,VALID,0,VALID,92.0934,VALID,303.991,VALID,20.7483,VALID,343,VALID,0.589658,
2002-08-20, 08:17:00,VALID,918.733,VALID,0,VALID,91.6204,VALID,330.379,VALID,20.7897,VALID,345,VALID,0.313556,
2002-08-20, 08:18:00,VALID,918.749,VALID,0,VALID,91.202,VALID,333.215,VALID,20.8926,VALID,349,VALID,0.492393,
2002-08-20, 08:19:00,VALID,918.759,VALID,0,VALID,90.4925,VALID,346.273,VALID,20.9866,VALID,309,VALID,0.361842,
2002-08-20, 08:20:00,VALID,918.785,VALID,0,VALID,89.582,VALID,328.885,VALID,21.0218,VALID,318,VALID,0.519922,
2002-08-20, 08:21:00,VALID,918.792,VALID,0,VALID,89.8617,VALID,247.614,VALID,21.077,VALID,324,VALID,0.253495,
2002-08-20, 08:22:00,VALID,918.771,VALID,0,VALID,90.467,VALID,318.221,VALID,21.1607,VALID,14,VALID,0.832442,
2002-08-20, 08:23:00,VALID,918.741,VALID,0,VALID,89.4701,VALID,360.605,VALID,21.2173,VALID,13,VALID,1.35431,
2002-08-20, 08:24:00,VALID,918.714,VALID,0,VALID,90.0194,VALID,364.799,VALID,21.2625,VALID,352,VALID,0.648438,
2002-08-20, 08:25:00,VALID,918.722,VALID,0,VALID,89.8147,VALID,346.137,VALID,21.3231,VALID,5,VALID,0.933036,
2002-08-20, 08:26:00,VALID,918.718,VALID,0,VALID,89.6863,VALID,355.918,VALID,21.4459,VALID,6,VALID,0.483984,
2002-08-20, 08:27:00,VALID,918.704,VALID,0,VALID,88.7478,VALID,370.42,VALID,21.5719,VALID,2,VALID,1.03846,
2002-08-20, 08:28:00,VALID,918.725,VALID,0,VALID,87.6924,VALID,363.237,VALID,21.6228,VALID,26,VALID,1.58614,
2002-08-20, 08:29:00,VALID,918.717,VALID,0,VALID,87.3402,VALID,340.16,VALID,21.7173,VALID,8,VALID,1.28783,
2002-08-20, 08:30:00,VALID,918.737,VALID,0,VALID,87.7687,VALID,368.382,VALID,21.7362,VALID,22,VALID,0.790968,
2002-08-20, 08:31:00,VALID,918.732,VALID,0,VALID,87.0324,VALID,378.503,VALID,21.8008,VALID,338,VALID,0.803454,
2002-08-20, 08:32:00,VALID,918.747,VALID,0,VALID,86.5187,VALID,413.721,VALID,21.8396,VALID,14,VALID,0.822163,
2002-08-20, 08:33:00,VALID,918.751,VALID,0,VALID,86.8595,VALID,451.894,VALID,21.9618,VALID,10,VALID,0.402995,
2002-08-20, 08:34:00,VALID,918.765,VALID,0,VALID,86.6001,VALID,456.003,VALID,22.097,VALID,357,VALID,0.551309,
2002-08-20, 08:35:00,VALID,918.799,VALID,0,VALID,84.989,VALID,383.733,VALID,22.1075,VALID,9,VALID,0.733929,
2002-08-20, 08:36:00,VALID,918.827,VALID,0,VALID,85.4175,VALID,424.283,VALID,22.1487,VALID,357,VALID,0.774465,
2002-08-20, 08:37:00,VALID,918.852,VALID,0,VALID,84.1968,VALID,404.093,VALID,22.0838,VALID,29,VALID,0.948902,
2002-08-20, 08:38:00,VALID,918.877,VALID,0,VALID,85.1873,VALID,338.207,VALID,22.0921,VALID,8,VALID,0.566406,
2002-08-20, 08:39:00,VALID,918.929,VALID,0,VALID,84.6266,VALID,461.607,VALID,22.182,VALID,24,VALID,0.73712,
2002-08-20, 08:40:00,VALID,918.944,VALID,0,VALID,84.5477,VALID,423.774,VALID,22.308,VALID,360,VALID,0.519336,
2002-08-20, 08:41:00,VALID,918.984,VALID,0,VALID,84.006,VALID,499.593,VALID,22.4041,VALID,257,VALID,0.369243,
2002-08-20, 08:42:00,VALID,919.01,VALID,0,VALID,84.0314,VALID,488.708,VALID,22.5237,VALID,313,VALID,0.223524,
2002-08-20, 08:43:00,VALID,919.038,VALID,0,VALID,82.8527,VALID,364.307,VALID,22.7696,VALID,352,VALID,0.331503,
2002-08-20, 08:44:00,VALID,919.034,VALID,0,VALID,80.1937,VALID,399.678,VALID,22.823,VALID,290,VALID,0.625211,
2002-08-20, 08:45:00,VALID,919.038,VALID,0,VALID,79.853,VALID,497.963,VALID,22.5921,VALID,265,VALID,0.367188,
2002-08-20, 08:46:00,VALID,919.038,VALID,0,VALID,80.3934,VALID,426.898,VALID,22.7508,VALID,251,VALID,0.319568,
2002-08-20, 08:47:00,VALID,919.067,VALID,0,VALID,79.9191,VALID,445.237,VALID,22.8577,VALID,333,VALID,0.335515,
2002-08-20, 08:48:00,VALID,919.076,VALID,0,VALID,80.1238,VALID,467.771,VALID,22.9347,VALID,240,VALID,0.565584,
2002-08-20, 08:49:00,VALID,919.115,VALID,0,VALID,80.1162,VALID,384.803,VALID,22.8248,VALID,232,VALID,0.698191,
2002-08-20, 08:50:00,VALID,919.145,VALID,0,VALID,80.724,VALID,268.484,VALID,22.6304,VALID,262,VALID,0.834961,
2002-08-20, 08:51:00,VALID,919.161,VALID,0,VALID,82.255,VALID,286.67,VALID,22.44,VALID,306,VALID,0.307771,
2002-08-20, 08:52:00,VALID,919.166,VALID,0,VALID,81.2822,VALID,254.033,VALID,22.4103,VALID,255,VALID,0.184211,
2002-08-20, 08:53:00,VALID,919.179,VALID,0,VALID,81.4399,VALID,214.655,VALID,22.4879,VALID,293,VALID,0.354307,
2002-08-20, 08:54:00,VALID,919.194,VALID,0,VALID,81.2199,VALID,218.034,VALID,22.3745,VALID,277,VALID,0.380859,
2002-08-20, 08:55:00,VALID,919.21,VALID,0,VALID,81.8265,VALID,246.494,VALID,22.3028,VALID,299,VALID,0.17567,
2002-08-20, 08:56:00,VALID,919.221,VALID,0,VALID,82.4725,VALID,280.625,VALID,22.3163,VALID,357,VALID,0.194727,
2002-08-20, 08:57:00,VALID,919.252,VALID,0,VALID,83.1604,VALID,421.566,VALID,22.448,VALID,22,VALID,0.0372596,
2002-08-20, 08:58:00,VALID,919.278,VALID,0,VALID,81.8036,VALID,498.116,VALID,22.6098,VALID,339,VALID,0.248561,
2002-08-20, 08:59:00,VALID,919.279,VALID,0,VALID,81.122,VALID,472.424,VALID,22.5252,VALID,309,VALID,0.55551,
2002-08-20, 09:00:00,VALID,919.271,VALID,0,VALID,82.5093,VALID,418.883,VALID,22.5061,VALID,25,VALID,1.21113,
2002-08-20, 09:01:00,VALID,919.257,VALID,0,VALID,82.5666,VALID,328.732,VALID,22.5608,VALID,15,VALID,0.964844,
2002-08-20, 09:02:00,VALID,919.263,VALID,0,VALID,82.2258,VALID,520.53,VALID,22.6154,VALID,12,VALID,0.280428,
2002-08-20, 09:03:00,VALID,919.275,VALID,0,VALID,81.342,VALID,596.214,VALID,22.6407,VALID,275,VALID,0.690972,
2002-08-20, 09:04:00,VALID,919.289,VALID,0,VALID,80.9516,VALID,676.058,VALID,22.6313,VALID,244,VALID,0.758868,
2002-08-20, 09:05:00,VALID,919.296,VALID,0,VALID,81.7832,VALID,612.753,VALID,22.6569,VALID,310,VALID,0.254018,
2002-08-20, 09:06:00,VALID,919.301,VALID,0,VALID,81.9028,VALID,604.772,VALID,22.78,VALID,299,VALID,0.535979,
2002-08-20, 09:07:00,VALID,919.313,VALID,0,VALID,81.6129,VALID,442.656,VALID,22.9012,VALID,267,VALID,0.406039,
2002-08-20, 09:08:00,VALID,919.286,VALID,0,VALID,82.18,VALID,308.287,VALID,23.0396,VALID,339,VALID,0.371505,
2002-08-20, 09:09:00,VALID,919.279,VALID,0,VALID,80.3807,VALID,441.536,VALID,23.0849,VALID,297,VALID,0.81989,
2002-08-20, 09:10:00,VALID,919.261,VALID,0,VALID,79.1815,VALID,586.229,VALID,22.9462,VALID,254,VALID,0.64707,
2002-08-20, 09:11:00,VALID,919.249,VALID,0,VALID,79.5999,VALID,419.427,VALID,22.8357,VALID,288,VALID,0.715666,
2002-08-20, 09:12:00,VALID,919.248,VALID,0,VALID,79.4715,VALID,297.674,VALID,22.6868,VALID,253,VALID,0.607856,
2002-08-20, 09:13:00,VALID,919.268,VALID,0,VALID,80.1276,VALID,511.666,VALID,22.5578,VALID,247,VALID,0.598395,
2002-08-20, 09:14:00,VALID,919.291,VALID,0,VALID,81.8239,VALID,416.947,VALID,22.5872,VALID,325,VALID,0.634713,
2002-08-20, 09:15:00,VALID,919.286,VALID,0,VALID,81.7464,VALID,490.712,VALID,22.7024,VALID,290,VALID,0.590278,
2002-08-20, 09:16:00,VALID,919.289,VALID,0,VALID,80.4951,VALID,538.768,VALID,22.7705,VALID,281,VALID,0.142857,
2002-08-20, 09:17:00,VALID,919.258,VALID,0,VALID,80.9262,VALID,485.957,VALID,22.9642,VALID,347,VALID,0.781461,
2002-08-20, 09:18:00,VALID,919.233,VALID,0,VALID,79.7385,VALID,322.84,VALID,23.0035,VALID,268,VALID,0.485609,
2002-08-20, 09:19:00,VALID,919.204,VALID,0,VALID,79.6978,VALID,423.909,VALID,22.9324,VALID,311,VALID,0.439145,
2002-08-20, 09:20:00,VALID,919.182,VALID,0,VALID,79.24,VALID,432.96,VALID,22.767,VALID,279,VALID,0.605859,
2002-08-20, 09:21:00,VALID,919.184,VALID,0,VALID,80.2357,VALID,555.001,VALID,22.6598,VALID,243,VALID,0.387541,
2002-08-20, 09:22:00,VALID,919.193,VALID,0,VALID,79.961,VALID,615.81,VALID,22.6824,VALID,318,VALID,0.725535,
2002-08-20, 09:23:00,VALID,919.202,VALID,0,VALID,82.0973,VALID,663.05,VALID,22.8314,VALID,12,VALID,1.28399,
2002-08-20, 09:24:00,VALID,919.212,VALID,0,VALID,79.5885,VALID,634.115,VALID,23.0347,VALID,323,VALID,0.624783,
2002-08-20, 09:25:00,VALID,919.235,VALID,0,VALID,79.5948,VALID,703.686,VALID,23.0831,VALID,2,VALID,0.352009,